Tracking 19792 objects as of 15-Jul-2019
HD Live streaming from Space Station
objects crossing your sky now

COSMOS 1275 DEB

Track COSMOS 1275 DEB now!
10-day predictions


NORAD ID: 42122
Int'l Code: 1981-053QJ
Perigee: 901.6 km
Apogee: 1,044.2 km
Inclination: 82.9 °
Period: 104.4 minutes
Semi major axis: 7343 km
RCS: Unknown
Launch date: June 4, 1981
Source: Commonwealth of Independent States (former USSR) (CIS)
Launch site: PLESETSK MISSILE AND SPACE COMPLEX (PKMTR)

Note: This is SATELLITE DEBRIS
aabbcc
Your satellite tracking list
Your tracking list is empty




NASA's NSSDC Master Catalog

Two Line Element Set (TLE):
1 42122U 81053QJ  19195.03449253 +.00000395 +00000-0 +35501-3 0  9997
2 42122 082.9420 101.6907 0097093 115.7358 304.3549 13.79484011283739
Source of the keplerian elements: AFSPC